KN6KS Weather Reports


Display with metric or nautical units.
time (UTC)temp
F
wind
direction
speed
MPH
gust
MPH
rain 1hr
in
rain 24hr
in
rain mn
in
humidity
%
barometer
mb
20260906203051 66 247 0.0 0.0 0.05 0.11 0.11 89 1015.9
20260906202548 66 241 1.0 2.0 0.05 0.11 0.11 89 1016.3
20260906202047 66 213 0.0 0.0 0.05 0.11 0.11 89 1015.7
20260906201542 66 234 0.0 0.0 0.07 0.10 0.10 89 1015.6
20260906201042 66 87 3.0 3.0 0.07 0.10 0.10 89 1015.3
20260906200538 66 148 0.0 1.0 0.00 0.09 0.09 89 1015.6
20260906200034 66 210 1.0 1.0 0.00 0.09 0.09 88 1015.9
20260906195529 66 347 2.0 2.0 0.00 0.09 0.09 88 1016.1
20260906195025 66 278 1.0 1.0 0.00 0.09 0.09 88 1015.8
20260906194521 67 216 0.0 0.0 0.00 0.09 0.09 88 1015.9
20260906194016 67 17 3.0 3.0 0.00 0.09 0.09 87 1015.9
20260906193516 67 239 0.0 0.0 0.00 0.09 0.09 87 1015.8
20260906193011 66 236 1.0 1.0 0.05 0.09 0.09 87 1016.3
20260906192507 66 279 2.0 2.0 0.05 0.09 0.09 87 1016.6
20260906192005 67 324 2.0 3.0 0.00 0.08 0.08 87 1017.1
20260906191501 66 346 4.0 5.0 0.07 0.08 0.08 86 1016.7
20260906191000 66 265 2.0 2.0 0.07 0.08 0.08 86 1016.2
20260906190459 66 302 5.0 9.0 0.00 0.07 0.07 86 1016.8
20260906185954 67 282 6.0 7.0 0.00 0.07 0.07 86 1016.8
20260906185453 68 253 2.0 2.0 0.05 0.07 0.07 86 1016.7
20260906184952 68 6 5.0 6.0 0.05 0.07 0.07 85 1016.7
20260906184448 68 300 0.0 1.0 0.00 0.06 0.06 85 1016.8
20260906183942 69 253 4.0 5.0 0.07 0.06 0.06 84 1016.9
20260906183439 69 262 3.0 5.0 0.12 0.06 0.06 84 1016.7
20260906182934 69 248 2.0 2.0 0.19 0.06 0.06 84 1016.7
20260906182430 69 212 1.0 2.0 0.12 0.05 0.05 82 1016.6
20260906181926 69 278 1.0 2.0 0.12 0.03 0.03 82 1016.8
20260906181421 70 248 1.0 2.0 0.12 0.03 0.03 81 1017.0
20260906180917 70 226 4.0 5.0 0.07 0.02 0.02 80 1016.8
20260906180412 70 224 5.0 8.0 0.07 0.01 0.01 80 1016.6
20260906175909 71 174 5.0 6.0 0.07 0.01 0.01 78 1016.1
20260906175404 71 175 5.0 7.0 0.00 0.00 0.00 77 1016.3
20260906174903 71 268 4.0 5.0 0.00 0.00 0.00 76 1016.6
20260906174402 71 301 7.0 8.0 0.00 0.00 0.00 76 1016.4
20260906173857 72 271 10.0 10.0 0.00 0.00 0.00 76 1016.6
20260906173353 72 328 5.0 6.0 0.00 0.00 0.00 75 1016.4
20260906172852 72 253 0.0 0.0 0.00 0.00 0.00 74 1016.1
20260906172349 72 278 5.0 7.0 0.00 0.00 0.00 74 1016.0
20260906171849 72 239 3.0 3.0 0.00 0.00 0.00 74 1016.2
20260906171344 72 243 5.0 7.0 0.00 0.00 0.00 74 1016.3
20260906170839 72 206 5.0 9.0 0.00 0.00 0.00 74 1015.6
20260906170335 72 228 11.0 13.0 0.00 0.00 0.00 73 1015.6
20260906165831 72 223 13.0 16.0 0.00 0.00 0.00 72 1016.1
20260906165325 73 292 3.0 3.0 0.00 0.00 0.00 70 1015.9
20260906164820 73 210 5.0 7.0 0.00 0.00 0.00 69 1015.6
20260906164319 73 233 10.0 14.0 0.00 0.00 0.00 62 1015.9
20260906163816 72 217 0.0 1.0 0.00 0.00 0.00 42 1015.6
20260906163312 72 226 3.0 3.0 0.00 0.00 0.00 42 1015.7
20260906162809 72 243 3.0 3.0 0.00 0.00 0.00 43 1015.8
20260906162308 72 16 0.0 0.0 0.00 0.00 0.00 42 1015.7
20260906161803 72 259 1.0 2.0 0.00 0.00 0.00 41 1015.7
20260906161302 72 28 0.0 0.0 0.00 0.00 0.00 42 1015.5
20260906160801 72 322 3.0 3.0 0.00 0.00 0.00 41 1015.5
20260906160255 72 246 0.0 0.0 0.00 0.00 0.00 46 1015.5
20260906155753 72 248 0.0 0.0 0.00 0.00 0.00 45 1015.4
20260906155248 72 268 0.0 0.0 0.00 0.00 0.00 43 1015.0
20260906154743 72 244 0.0 0.0 0.00 0.00 0.00 44 1015.2
20260906154238 72 101 0.0 0.0 0.00 0.00 0.00 42 1015.0
20260906153737 72 296 0.0 0.0 0.00 0.00 0.00 41 1014.8
20260906153231 72 32 3.0 3.0 0.00 0.00 0.00 40 1014.8
20260906152727 72 82 4.0 5.0 0.00 0.00 0.00 40 1015.0
20260906152221 72 36 4.0 5.0 0.00 0.00 0.00 41 1014.8
20260906151721 72 54 3.0 3.0 0.00 0.00 0.00 43 1014.8
20260906151217 73 58 3.0 3.0 0.00 0.00 0.00 54 1014.7
20260906150712 73 318 0.0 0.0 0.00 0.00 0.00 53 1014.9
20260906150207 72 51 0.0 1.0 0.00 0.00 0.00 47 1014.7
20260906145706 73 42 2.0 3.0 0.00 0.00 0.00 49 1014.8
20260906145206 73 52 2.0 3.0 0.00 0.00 0.00 51 1014.6
20260906144700 73 238 0.0 0.0 0.00 0.00 0.00 48 1015.2
20260906144155 73 220 0.0 0.0 0.00 0.00 0.00 46 1014.9
20260906143655 73 204 2.0 3.0 0.00 0.00 0.00 44 1014.8
20260906143153 72 111 4.0 5.0 0.00 0.00 0.00 43 1014.9
20260906142652 72 244 3.0 3.0 0.00 0.00 0.00 43 1015.3
20260906142147 72 247 0.0 0.0 0.00 0.00 0.00 43 1015.2
20260906141645 72 232 3.0 3.0 0.00 0.00 0.00 44 1015.2
20260906141141 71 345 4.0 5.0 0.00 0.00 0.00 43 1014.8
20260906140640 72 38 0.0 0.0 0.00 0.00 0.00 43 1014.7
20260906140135 71 63 3.0 5.0 0.00 0.00 0.00 44 1014.8
20260906135632 70 207 0.0 1.0 0.00 0.00 0.00 43 1014.8
20260906135128 70 227 0.0 0.0 0.00 0.00 0.00 43 1014.8
20260906134624 69 233 1.0 1.0 0.00 0.00 0.00 43 1014.7
20260906134118 69 136 0.0 0.0 0.00 0.00 0.00 44 1014.3
20260906133614 69 163 3.0 5.0 0.00 0.00 0.00 44 1014.4
20260906133109 69 169 2.0 3.0 0.00 0.00 0.00 45 1014.5
20260906132604 71 236 0.0 0.0 0.00 0.00 0.00 44 1014.3
20260906132059 71 191 0.0 0.0 0.00 0.00 0.00 41 1014.5
20260906131554 72 224 0.0 0.0 0.00 0.00 0.00 38 1014.4
20260906131050 72 256 0.0 0.0 0.00 0.00 0.00 38 1014.3
20260906130544 71 245 0.0 0.0 0.00 0.00 0.00 42 1014.4
20260906130040 71 266 0.0 0.0 0.00 0.00 0.00 40 1014.4
20260906125537 70 236 0.0 0.0 0.00 0.00 0.00 44 1014.3
20260906125037 71 202 0.0 0.0 0.00 0.00 0.00 42 1014.0
20260906124532 71 255 0.0 0.0 0.00 0.00 0.00 38 1013.8
20260906124027 72 245 0.0 0.0 0.00 0.00 0.00 40 1013.9
20260906123526 72 266 0.0 2.0 0.00 0.00 0.00 38 1013.6
20260906123021 72 260 3.0 3.0 0.00 0.00 0.00 39 1013.9
20260906122515 71 247 0.0 0.0 0.00 0.00 0.00 41 1013.9
20260906122012 70 251 0.0 0.0 0.00 0.00 0.00 41 1013.8
20260906121507 71 245 0.0 0.0 0.00 0.00 0.00 41 1013.6
20260906121003 71 117 0.0 0.0 0.00 0.00 0.00 40 1013.4
20260906120458 70 112 0.0 0.0 0.00 0.00 0.00 40 1013.5
20260906115955 70 155 0.0 0.0 0.00 0.00 0.00 40 1013.6
20260906115450 70 225 0.0 0.0 0.00 0.00 0.00 40 1013.8
20260906114950 71 225 0.0 0.0 0.00 0.00 0.00 40 1013.8
20260906114445 70 236 0.0 0.0 0.00 0.00 0.00 40 1014.0
20260906113941 70 198 0.0 0.0 0.00 0.00 0.00 39 1013.9
20260906113439 71 215 0.0 0.0 0.00 0.00 0.00 38 1014.0
20260906112935 71 266 0.0 0.0 0.00 0.00 0.00 39 1013.9
20260906112430 71 294 1.0 2.0 0.00 0.00 0.00 36 1014.0
20260906111926 72 344 0.0 1.0 0.00 0.00 0.00 35 1014.0
20260906111425 71 342 5.0 6.0 0.00 0.00 0.00 35 1014.0
20260906110920 71 357 4.0 5.0 0.00 0.00 0.00 35 1013.9
20260906110415 71 312 2.0 3.0 0.00 0.00 0.00 35 1014.2
20260906105915 72 1 5.0 6.0 0.00 0.00 0.00 36 1014.0
20260906105410 72 302 2.0 2.0 0.00 0.00 0.00 40 1014.1
20260906104906 73 236 0.0 0.0 0.00 0.00 0.00 37 1014.1
20260906104404 74 248 0.0 1.0 0.00 0.00 0.00 39 1014.0
20260906103903 74 248 1.0 2.0 0.00 0.00 0.00 39 1013.9
20260906103402 74 273 2.0 2.0 0.00 0.00 0.00 38 1014.0
20260906102858 74 227 7.0 8.0 0.00 0.00 0.00 38 1014.0
20260906102357 73 239 4.0 6.0 0.00 0.00 0.00 38 1014.1
20260906101852 71 237 0.0 0.0 0.00 0.00 0.00 36 1013.6
20260906101347 71 266 0.0 0.0 0.00 0.00 0.00 34 1013.9
20260906100843 71 281 0.0 0.0 0.00 0.00 0.00 33 1014.0
20260906100342 71 293 2.0 2.0 0.00 0.00 0.00 34 1013.9
20260906095837 71 299 0.0 0.0 0.00 0.00 0.00 34 1014.0
20260906095333 71 286 1.0 2.0 0.00 0.00 0.00 34 1014.0
20260906094832 71 246 0.0 0.0 0.00 0.00 0.00 34 1014.0
20260906094327 70 328 0.0 0.0 0.00 0.00 0.00 34 1014.1
20260906093823 71 244 0.0 0.0 0.00 0.00 0.00 34 1014.1
20260906093319 70 247 0.0 0.0 0.00 0.00 0.00 34 1014.1
20260906092813 70 261 0.0 0.0 0.00 0.00 0.00 34 1014.0
20260906092308 70 251 0.0 0.0 0.00 0.00 0.00 34 1014.2
20260906091804 70 249 2.0 2.0 0.00 0.00 0.00 34 1014.2
20260906091300 70 250 0.0 0.0 0.00 0.00 0.00 34 1014.2
20260906090756 71 317 3.0 3.0 0.00 0.00 0.00 34 1014.3
20260906090254 71 252 0.0 0.0 0.00 0.00 0.00 34 1014.3
20260906085754 72 7 0.0 0.0 0.00 0.00 0.00 33 1014.2
20260906085248 73 357 2.0 3.0 0.00 0.00 0.00 33 1014.6
20260906084743 74 248 5.0 6.0 0.00 0.00 0.00 33 1014.0
20260906084242 74 247 5.0 6.0 0.00 0.00 0.00 33 1014.3
20260906083737 73 219 4.0 6.0 0.00 0.00 0.00 33 1014.3
20260906083233 71 246 0.0 0.0 0.00 0.00 0.00 34 1014.2
20260906082728 69 252 0.0 0.0 0.00 0.00 0.00 34 1014.2
20260906082223 70 251 0.0 0.0 0.00 0.00 0.00 35 1014.3
20260906081719 69 260 0.0 0.0 0.00 0.00 0.00 35 1014.4
20260906081219 69 243 0.0 0.0 0.00 0.00 0.00 36 1014.3
20260906080715 70 248 0.0 0.0 0.00 0.00 0.00 36 1014.1
20260906080212 70 240 0.0 0.0 0.00 0.00 0.00 35 1014.0
20260906075706 69 254 0.0 0.0 0.00 0.00 0.00 36 1014.1
20260906075201 70 246 0.0 0.0 0.00 0.00 0.00 37 1014.1
20260906074656 69 245 0.0 0.0 0.00 0.00 0.00 36 1014.3
20260906074155 69 272 0.0 0.0 0.00 0.00 0.00 36 1014.2
20260906073650 69 250 0.0 0.0 0.00 0.00 0.00 39 1014.3
20260906073145 69 246 0.0 0.0 0.00 0.00 0.00 37 1014.3
20260906072641 69 227 0.0 0.0 0.00 0.00 0.00 38 1014.2
20260906072136 69 220 0.0 0.0 0.00 0.00 0.00 39 1014.3
20260906071633 69 204 0.0 0.0 0.00 0.00 0.00 38 1014.4
20260906071132 70 243 0.0 0.0 0.00 0.00 0.00 36 1014.3
20260906070629 70 237 0.0 0.0 0.00 0.00 0.00 36 1014.1
20260906070125 71 254 0.0 0.0 0.00 0.00 0.00 36 1014.3
20260906065624 71 254 0.0 0.0 0.00 0.00 0.00 36 1014.2
20260906065119 71 257 0.0 0.0 0.00 0.00 0.00 37 1014.3
20260906064615 70 259 0.0 0.0 0.00 0.00 0.00 36 1014.1
20260906064110 70 247 0.0 0.0 0.00 0.00 0.00 37 1014.5
20260906063605 70 260 0.0 0.0 0.00 0.00 0.00 36 1014.3
20260906063101 70 241 0.0 0.0 0.00 0.00 0.00 37 1014.3
20260906062556 70 242 0.0 0.0 0.00 0.00 0.00 37 1014.3
20260906062055 71 262 0.0 0.0 0.00 0.00 0.00 37 1014.4
20260906061552 71 249 0.0 0.0 0.00 0.00 0.00 37 1014.3
20260906061051 71 260 0.0 0.0 0.00 0.00 0.00 37 1014.0
20260906060548 71 242 0.0 0.0 0.00 0.00 0.00 37 1014.2
20260906060045 71 275 0.0 0.0 0.00 0.00 0.00 37 1014.2
20260906055540 71 239 0.0 0.0 0.00 0.00 0.00 38 1014.5
20260906055036 71 238 0.0 0.0 0.00 0.00 0.00 37 1014.4
20260906054536 71 267 1.0 2.0 0.00 0.00 0.00 37 1014.3
20260906054031 72 259 0.0 1.0 0.00 0.00 0.00 37 1014.4
20260906053527 72 298 4.0 5.0 0.00 0.00 0.00 37 1014.5
20260906053023 72 323 3.0 5.0 0.00 0.00 0.00 37 1014.4
20260906052518 72 294 3.0 3.0 0.00 0.00 0.00 37 1014.3
20260906052015 72 355 3.0 3.0 0.00 0.00 0.00 37 1014.4
20260906051510 71 262 2.0 2.0 0.00 0.00 0.00 38 1014.4
20260906051006 72 244 0.0 0.0 0.00 0.00 0.00 38 1014.5
20260906050500 72 341 4.0 5.0 0.00 0.00 0.00 37 1014.3
20260906050000 73 356 4.0 6.0 0.00 0.00 0.00 37 1014.6
20260906045458 74 331 1.0 3.0 0.00 0.00 0.00 35 1014.3
20260906044955 75 281 2.0 2.0 0.00 0.00 0.00 34 1014.5
20260906044449 75 281 1.0 2.0 0.00 0.00 0.00 34 1014.4
20260906043945 75 193 9.0 11.0 0.00 0.00 0.00 35 1014.2
20260906043441 75 250 5.0 6.0 0.00 0.00 0.00 35 1014.3
20260906042937 75 228 11.0 11.0 0.00 0.00 0.00 35 1014.1
20260906042436 75 229 7.0 9.0 0.00 0.00 0.00 35 1014.1
20260906041931 75 244 9.0 10.0 0.00 0.00 0.00 35 1013.9
20260906041427 75 239 12.0 16.0 0.00 0.00 0.00 35 1014.2
20260906040926 75 228 10.0 14.0 0.00 0.00 0.00 34 1013.9
20260906040422 75 274 10.0 13.0 0.00 0.00 0.00 35 1014.0
20260906035916 75 239 12.0 15.0 0.00 0.00 0.00 35 1013.6
20260906035407 75 227 12.0 14.0 0.00 0.00 0.00 35 1013.8
20260906034902 75 227 11.0 14.0 0.00 0.00 0.00 35 1013.8
20260906034402 75 237 14.0 17.0 0.00 0.00 0.00 34 1013.9
20260906033858 75 247 14.0 15.0 0.00 0.00 0.00 34 1013.9
20260906033357 75 254 13.0 16.0 0.00 0.00 0.00 33 1013.2
20260906032853 76 242 9.0 13.0 0.00 0.00 0.00 31 1013.5
20260906032349 76 251 11.0 14.0 0.00 0.00 0.00 29 1013.3
20260906031844 76 229 11.0 11.0 0.00 0.00 0.00 26 1013.3
20260906031339 77 232 13.0 15.0 0.00 0.00 0.00 24 1013.2
20260906030839 77 239 17.0 18.0 0.00 0.00 0.00 22 1013.4
20260906030335 77 238 12.0 14.0 0.00 0.00 0.00 22 1013.3
20260906025829 77 248 13.0 15.0 0.00 0.00 0.00 26 1013.0
20260906025323 77 255 19.0 23.0 0.00 0.00 0.00 28 1013.2
20260906024822 77 226 21.0 25.0 0.00 0.00 0.00 28 1013.0
20260906024321 77 301 15.0 18.0 0.00 0.00 0.00 28 1013.1
20260906023817 77 237 20.0 25.0 0.00 0.00 0.00 28 1013.0
20260906023312 78 230 17.0 20.0 0.00 0.00 0.00 28 1012.9
20260906022808 78 247 16.0 23.0 0.00 0.00 0.00 28 1013.0
20260906022306 78 217 21.0 24.0 0.00 0.00 0.00 27 1013.2
20260906021759 78 251 17.0 22.0 0.00 0.00 0.00 25 1013.1
20260906021258 79 275 13.0 15.0 0.00 0.00 0.00 24 1012.9
20260906020753 79 240 18.0 20.0 0.00 0.00 0.00 23 1012.9
20260906020253 79 185 17.0 22.0 0.00 0.00 0.00 24 1012.9
20260906015752 80 247 12.0 14.0 0.00 0.00 0.00 24 1012.9
20260906015251 80 200 10.0 11.0 0.00 0.00 0.00 24 1013.0
20260906014746 80 233 14.0 16.0 0.00 0.00 0.00 23 1012.9
20260906014241 81 242 12.0 15.0 0.00 0.00 0.00 22 1012.9
20260906013738 81 242 16.0 23.0 0.00 0.00 0.00 21 1012.9
20260906013237 81 243 15.0 20.0 0.00 0.00 0.00 23 1012.9
20260906012733 81 252 9.0 10.0 0.00 0.00 0.00 22 1013.0
20260906012228 82 256 11.0 15.0 0.00 0.00 0.00 22 1013.0
20260906011723 82 263 10.0 13.0 0.00 0.00 0.00 23 1013.1
20260906011217 82 232 15.0 16.0 0.00 0.00 0.00 21 1013.1
20260906010713 82 251 12.0 14.0 0.00 0.00 0.00 22 1013.0
20260906010209 82 250 15.0 18.0 0.00 0.00 0.00 23 1013.2
20260906005709 82 244 17.0 21.0 0.00 0.00 0.00 23 1013.2
20260906005203 82 252 12.0 13.0 0.00 0.00 0.00 21 1012.9
20260906004702 82 249 18.0 22.0 0.00 0.00 0.00 20 1013.0
20260906004156 82 236 19.0 24.0 0.00 0.00 0.00 20 1012.9
20260906003652 83 208 17.0 20.0 0.00 0.00 0.00 20 1012.9
20260906003148 83 238 10.0 14.0 0.00 0.00 0.00 20 1012.9
20260906002648 83 228 18.0 22.0 0.00 0.00 0.00 20 1012.9
20260906002143 83 233 17.0 22.0 0.00 0.00 0.00 21 1013.0
20260906001638 84 197 18.0 21.0 0.00 0.00 0.00 21 1012.8
20260906001138 84 232 12.0 16.0 0.00 0.00 0.00 22 1012.7
20260906000634 83 282 10.0 13.0 0.00 0.00 0.00 21 1012.9
20260906000129 84 251 12.0 14.0 0.00 0.00 0.00 20 1013.1
20260905235627 84 204 11.0 14.0 0.00 0.00 0.00 20 1012.9
20260905235123 84 252 16.0 20.0 0.00 0.00 0.00 19 1013.0
20260905234618 84 242 20.0 24.0 0.00 0.00 0.00 19 1013.0
20260905234114 84 228 15.0 21.0 0.00 0.00 0.00 19 1012.9
20260905233614 84 245 10.0 13.0 0.00 0.00 0.00 20 1012.9
20260905233108 84 248 17.0 24.0 0.00 0.00 0.00 20 1013.0
20260905232604 85 233 11.0 15.0 0.00 0.00 0.00 19 1013.0
20260905232059 85 221 18.0 23.0 0.00 0.00 0.00 19 1012.7
20260905231554 84 229 11.0 14.0 0.00 0.00 0.00 19 1012.6
20260905231051 85 247 13.0 17.0 0.00 0.00 0.00 19 1012.9
20260905230550 84 258 9.0 11.0 0.00 0.00 0.00 18 1013.0
20260905230048 84 226 11.0 14.0 0.00 0.00 0.00 19 1013.1
20260905225543 84 202 15.0 20.0 0.00 0.00 0.00 18 1012.8
20260905225038 84 257 9.0 14.0 0.00 0.00 0.00 18 1012.8
20260905224532 84 249 13.0 15.0 0.00 0.00 0.00 20 1013.0
20260905224032 84 236 16.0 18.0 0.00 0.00 0.00 18 1013.2
20260905223530 85 248 14.0 16.0 0.00 0.00 0.00 19 1013.3
20260905223025 85 224 12.0 15.0 0.00 0.00 0.00 18 1013.2
20260905222525 85 248 10.0 13.0 0.00 0.00 0.00 19 1013.0
20260905222020 84 249 13.0 17.0 0.00 0.00 0.00 19 1013.0
20260905221517 85 240 13.0 15.0 0.00 0.00 0.00 19 1013.1
20260905221013 85 236 11.0 17.0 0.00 0.00 0.00 19 1013.4
20260905220509 85 258 10.0 11.0 0.00 0.00 0.00 20 1013.2
20260905220004 85 250 11.0 14.0 0.00 0.00 0.00 20 1013.4
20260905215458 85 235 11.0 13.0 0.00 0.00 0.00 20 1013.3
20260905214954 84 220 8.0 10.0 0.00 0.00 0.00 19 1013.5
20260905214450 84 244 15.0 16.0 0.00 0.00 0.00 20 1013.6
20260905213949 84 253 12.0 14.0 0.00 0.00 0.00 21 1013.9
20260905213440 84 211 9.0 11.0 0.00 0.00 0.00 21 1013.5
20260905212935 84 263 16.0 18.0 0.00 0.00 0.00 20 1013.6
20260905212430 84 250 11.0 11.0 0.00 0.00 0.00 22 1013.5
20260905211929 85 208 15.0 18.0 0.00 0.00 0.00 19 1013.8
20260905211425 83 196 6.0 9.0 0.00 0.00 0.00 21 1014.0
20260905210920 84 241 14.0 18.0 0.00 0.00 0.00 22 1013.8
20260905210415 84 227 14.0 17.0 0.00 0.00 0.00 20 1014.1
20260905205914 83 256 8.0 9.0 0.00 0.00 0.00 20 1014.1
20260905205409 84 234 11.0 14.0 0.00 0.00 0.00 20 1013.9
20260905204908 84 249 13.0 17.0 0.00 0.00 0.00 18 1014.3
20260905204404 84 234 8.0 11.0 0.00 0.00 0.00 19 1014.3
20260905203903 83 211 12.0 15.0 0.00 0.00 0.00 20 1014.3
20260905203353 83 236 15.0 18.0 0.00 0.00 0.00 20 1014.2